GFSGBSN_850_thetae_231.txt.gz
Theta_e
313 313 314 314 314 314 315 315 315 315 316 317 318 317 317 317 318 318 318 318 317 317 318 319 321 323 325 329 330 329 329 329 332 334 335 335 337 339 340 339 339 341 340 340 340 343 344
314 315 315 315 315 315 315 315 316 316 316 316 317 318 317 317 317 318 318 319 318 318 317 317 317 319 323 328 327 327 328 329 333 336 336 335 336 337 338 338 339 337 338 338 339 340 342
316 316 316 316 316 316 316 316 316 316 316 316 316 317 318 317 317 317 318 319 319 318 317 316 316 316 323 326 325 327 328 330 334 333 334 334 334 336 337 338 336 336 339 339 339 340 342
317 318 317 317 317 317 317 317 317 317 316 316 316 317 318 318 317 317 317 318 319 318 317 316 315 316 323 321 324 324 328 329 331 332 333 334 334 335 337 337 335 337 338 341 338 338 340
317 317 318 318 318 319 319 319 318 317 317 316 316 317 318 318 317 316 317 318 319 318 317 316 318 322 323 320 320 324 328 330 332 332 334 333 334 336 336 337 337 337 340 339 338 338 339
319 319 319 319 319 319 319 320 319 318 317 317 316 317 318 318 317 316 317 318 319 317 316 316 320 324 322 321 322 326 328 330 330 334 335 336 336 338 337 338 341 338 338 337 338 336 338
319 319 319 319 319 320 320 320 320 319 318 317 316 317 318 318 316 316 317 319 321 324 323 324 322 323 324 325 325 327 329 329 330 334 339 338 339 338 337 339 337 335 336 336 336 335 336
316 317 318 318 318 318 318 319 320 320 319 317 317 317 317 317 316 317 317 324 324 325 327 321 321 321 323 325 324 327 328 328 331 337 338 340 337 338 337 335 336 336 336 336 336 334 336
314 314 314 315 316 316 316 317 318 320 319 318 318 317 316 316 318 318 319 322 324 325 328 323 322 324 325 325 326 328 327 328 332 335 338 339 336 337 335 335 336 337 335 336 334 335 335
316 315 314 312 312 313 314 315 317 320 320 319 319 318 316 317 319 322 321 321 324 325 332 327 326 326 326 325 327 327 327 327 331 333 335 335 336 335 336 335 336 336 334 332 333 334 335
315 315 316 315 312 311 312 313 315 319 319 320 321 320 316 319 324 321 323 324 325 326 333 328 327 327 326 327 326 325 325 327 330 330 330 329 330 333 335 335 335 334 332 332 333 335 336
312 311 312 315 314 311 311 312 314 320 319 322 322 322 317 320 318 326 324 326 325 331 333 328 328 327 328 329 326 325 327 328 329 329 329 332 330 331 334 335 333 333 333 333 333 334 335
317 314 311 313 313 311 311 312 316 320 321 323 322 323 320 321 324 324 325 327 329 331 331 328 327 328 328 329 329 328 329 330 330 331 330 334 332 333 334 334 332 332 332 334 335 335 335
317 317 311 311 312 310 311 312 318 319 324 323 320 323 321 320 323 323 326 330 332 330 332 329 328 328 328 330 330 329 329 330 330 331 332 333 334 333 333 333 333 334 332 334 339 340 342
313 316 314 310 311 310 311 312 320 320 324 322 317 323 323 321 322 325 328 331 332 333 332 328 329 328 329 330 332 331 332 331 331 331 333 335 334 334 333 333 333 333 333 333 334 340 342
312 314 316 310 310 310 311 313 320 320 323 323 324 325 325 323 325 326 330 329 334 334 335 331 331 330 331 331 332 332 333 333 332 330 332 334 335 335 334 333 333 333 335 333 334 344 342
313 314 316 314 309 309 311 314 320 321 323 326 324 328 325 324 325 327 330 330 332 331 332 333 331 330 332 331 332 333 333 333 333 333 333 335 339 337 333 334 333 332 334 334 337 338 342
315 313 315 316 310 309 311 314 320 320 323 324 331 330 323 326 328 328 330 332 326 331 331 334 334 332 332 332 334 334 335 335 333 335 335 335 337 338 334 335 335 335 336 336 337 338 339
320 316 313 315 314 309 311 313 320 320 323 329 332 327 324 327 331 330 332 332 329 332 335 333 334 334 334 333 335 335 336 333 333 335 337 337 337 346 345 336 335 335 336 335 335 335 337
323 320 316 314 316 311 310 312 320 320 323 326 331 329 326 327 329 332 332 331 331 330 334 334 336 337 336 334 336 335 336 333 333 334 330 334 336 339 343 342 340 336 335 334 334 335 335
324 323 318 314 314 314 309 311 319 320 322 327 333 331 328 330 329 331 331 332 332 335 334 335 337 337 337 337 336 336 336 334 332 328 332 335 337 338 339 340 339 335 335 335 335 335 334
323 323 322 315 312 314 311 310 313 320 322 332 333 334 328 331 328 329 326 332 333 336 336 336 337 336 337 338 337 337 336 337 337 335 337 336 338 336 336 336 335 334 334 334 332 331 331
323 323 323 320 313 313 314 309 311 317 323 331 329 332 332 330 330 330 331 332 333 335 334 335 337 336 337 336 335 334 334 334 335 335 335 336 336 338 337 336 335 335 333 332 331 330 331
322 323 322 322 316 312 314 312 309 312 319 325 326 328 334 335 330 329 331 331 332 335 336 333 334 337 332 331 331 332 332 331 331 332 332 335 336 336 336 335 336 335 334 331 330 330 335
322 322 322 322 318 313 312 313 310 310 312 320 325 327 333 338 331 331 331 331 332 332 334 333 330 331 330 332 333 333 333 332 332 331 331 332 332 334 335 336 335 332 333 332 332 335 335
322 321 321 322 319 314 311 313 312 309 310 315 325 323 328 334 334 331 332 332 334 334 333 331 329 328 330 334 334 335 335 333 335 336 334 332 332 332 333 335 336 333 333 331 331 332 334
322 321 321 321 319 315 312 311 313 310 309 311 322 320 326 330 332 330 333 333 332 333 334 333 331 331 331 334 333 333 333 333 333 332 332 333 335 333 333 332 331 334 331 330 331 338 333
323 322 321 320 321 316 312 310 312 311 309 310 318 316 322 327 329 328 329 331 331 332 335 334 332 332 333 334 333 332 332 332 332 331 332 333 333 333 332 333 332 332 332 332 336 334 334
323 322 321 320 321 317 312 309 310 311 308 309 320 319 318 322 326 325 325 327 328 329 330 331 333 334 333 333 333 333 334 332 333 334 334 333 331 333 336 339 335 333 334 332 333 334 333

GFSGBSN_850_thetae_234.txt.gz
Theta_e
315 315 315 315 315 315 315 316 316 316 316 316 317 318 318 317 318 318 318 318 318 319 319 320 321 323 325 329 331 330 333 338 339 338 337 337 338 341 342 341 340 341 340 341 342 344 343
316 317 316 316 316 316 316 317 317 316 316 316 317 317 318 318 318 318 318 318 318 318 318 318 318 320 322 328 331 329 331 332 335 337 338 338 337 338 339 339 339 338 338 340 341 341 344
317 317 317 318 318 318 318 318 318 317 317 316 316 317 318 319 318 318 318 318 319 319 318 317 316 316 322 326 328 328 330 333 335 337 336 337 336 337 338 339 337 336 339 340 340 341 345
318 318 318 318 319 319 319 319 319 318 317 317 316 317 317 319 318 318 317 318 319 319 318 317 316 315 323 324 326 327 329 333 333 335 335 336 336 336 338 339 335 337 339 342 339 340 344
319 319 319 319 319 320 320 320 320 319 318 317 317 317 317 318 319 317 317 318 319 319 318 316 316 318 323 323 322 324 327 332 335 336 336 337 336 337 337 337 336 338 343 342 338 338 343
319 319 319 319 319 319 319 320 320 320 320 318 317 317 317 318 318 317 317 318 319 318 317 316 318 325 326 323 323 322 327 332 335 336 336 338 338 338 337 338 339 340 341 338 340 337 340
315 316 316 317 318 318 318 318 319 320 320 319 318 317 317 318 318 317 317 318 320 322 324 322 323 322 324 323 323 325 329 332 333 334 338 338 339 339 337 339 340 339 338 338 337 336 336
315 315 314 314 315 315 316 316 317 318 320 319 318 318 317 318 317 317 317 325 327 326 328 325 323 322 325 326 326 327 330 332 333 335 337 339 339 339 339 337 337 337 335 336 336 335 335
316 316 316 315 313 313 313 314 315 317 319 320 319 319 317 317 317 317 318 321 324 326 327 329 323 323 323 325 326 327 331 332 333 335 337 338 341 338 339 337 336 336 336 338 337 336 335
313 313 314 315 315 313 312 312 314 315 319 319 320 320 317 316 319 322 322 321 323 326 332 329 323 323 325 326 327 328 330 330 332 333 335 337 339 338 338 337 335 336 337 335 334 334 335
318 315 312 312 315 315 311 311 313 315 319 320 321 322 318 318 328 325 324 323 325 327 339 328 325 327 327 327 328 328 328 329 330 332 334 335 335 336 335 336 335 336 336 333 333 334 335
316 318 314 311 313 314 311 311 312 316 319 321 323 323 319 317 320 326 327 326 327 330 336 327 328 328 327 327 328 327 328 328 329 331 330 331 331 331 332 335 336 335 333 333 333 333 335
313 317 316 311 312 312 311 311 312 319 320 324 323 323 321 320 325 324 325 327 328 330 333 329 329 328 328 329 328 326 326 328 329 330 329 329 333 331 332 334 335 334 333 334 335 334 335
313 314 317 314 310 311 310 311 314 319 321 324 322 321 322 319 326 325 327 330 332 328 332 330 329 327 328 330 330 327 328 329 331 330 331 331 333 332 333 335 334 332 332 332 338 340 342
313 314 316 316 310 310 310 311 316 320 322 323 318 321 323 321 321 325 329 331 333 332 334 329 328 327 328 330 330 329 329 330 330 330 331 333 334 332 333 333 333 334 335 334 333 334 339
316 313 314 316 312 309 310 311 318 320 322 323 322 328 328 326 321 326 331 329 330 333 335 330 328 328 328 330 331 331 331 332 331 331 331 333 335 334 334 334 334 333 334 334 333 337 341
321 317 314 315 315 309 310 312 319 320 323 326 324 330 327 325 326 326 329 330 331 333 334 331 330 330 330 331 331 333 333 333 333 332 331 333 336 337 337 335 333 333 333 334 335 337 341
323 321 317 313 315 312 310 311 319 320 323 324 328 334 327 325 327 326 328 328 329 332 333 334 335 331 331 332 332 333 334 334 333 334 332 334 335 338 337 338 336 334 333 335 335 341 338
323 323 320 315 314 314 309 311 317 320 322 326 333 330 325 326 328 327 327 329 332 331 333 333 334 335 332 332 333 334 336 335 333 335 338 337 339 345 343 338 339 339 338 335 335 336 342
323 323 323 318 313 314 311 310 315 320 321 325 332 330 326 326 327 331 331 330 332 330 333 333 333 334 334 334 334 338 336 335 334 335 333 334 337 340 348 344 339 341 338 337 334 335 335
322 323 323 322 316 313 314 310 312 320 321 325 330 336 328 328 328 332 333 332 331 332 334 334 335 336 335 335 335 336 338 335 334 332 334 335 339 340 339 339 337 338 335 337 336 336 336
322 323 323 322 320 313 314 312 311 318 324 331 336 335 334 330 326 331 328 333 332 334 334 334 337 336 339 338 338 339 338 336 335 335 336 335 337 340 342 339 339 340 337 335 335 335 334
323 322 322 322 322 316 313 314 310 314 324 333 331 332 335 334 330 328 331 332 333 335 335 335 336 339 338 336 335 333 333 335 337 337 335 334 335 340 340 339 338 340 338 335 333 332 331
322 322 322 321 322 318 313 313 312 310 314 326 330 329 334 339 334 330 330 332 334 337 338 336 334 336 336 334 333 334 331 333 333 333 332 336 336 336 337 335 336 334 335 334 333 332 330
322 322 322 321 322 319 315 312 314 310 311 318 327 327 332 339 338 332 332 333 332 334 336 336 334 332 335 334 336 335 333 332 332 332 332 332 332 333 334 335 334 334 334 334 333 333 332
322 322 322 321 321 321 317 313 313 313 310 312 327 326 327 334 337 334 332 331 332 333 336 334 332 331 332 334 332 332 334 334 333 336 335 334 333 333 334 334 335 336 333 332 331 333 336
323 324 323 321 320 321 319 314 311 313 311 312 322 324 326 330 334 332 334 335 334 336 335 334 333 333 333 333 332 333 333 334 334 334 335 333 334 336 335 334 333 334 333 332 333 338 335
323 322 323 321 321 320 319 315 311 311 313 310 321 324 322 326 329 330 330 332 334 335 336 335 334 333 333 333 333 333 333 332 333 333 334 334 333 334 334 338 335 334 333 335 338 336 335
324 322 322 321 320 320 320 317 311 309 312 310 321 320 319 322 325 326 326 326 330 331 331 333 335 335 335 334 333 333 332 333 334 334 333 334 333 334 333 341 337 335 335 334 335 336 335

GFSGBSN_850_thetae_237.txt.gz
Theta_e
317 317 317 317 317 317 317 317 317 317 316 316 317 318 318 318 318 318 318 318 318 319 320 321 322 323 324 324 328 331 330 334 340 340 338 337 338 340 341 340 341 340 343 341 344 346 346
317 317 317 318 318 318 318 318 318 318 317 317 317 317 318 319 318 318 318 318 318 318 318 318 319 319 320 327 331 330 329 333 336 337 336 338 337 337 341 338 338 339 340 340 344 345 346
318 318 318 319 319 319 319 319 319 319 318 317 317 317 317 318 319 318 318 318 319 318 318 318 317 317 317 323 330 327 328 330 333 335 336 336 336 336 336 336 338 337 339 339 345 345 345
319 319 319 319 319 319 320 320 320 320 319 318 317 317 317 318 319 319 318 318 319 319 319 318 317 316 316 321 323 327 327 328 333 334 336 335 337 336 336 338 336 337 339 341 346 344 344
318 318 318 319 319 319 319 319 319 319 320 319 318 317 317 317 318 319 318 318 318 319 318 317 316 319 323 322 322 327 325 327 332 334 335 336 337 337 337 335 335 336 340 340 342 345 344
315 315 316 317 317 318 318 318 318 319 319 320 319 318 317 317 318 319 318 318 318 319 318 317 316 324 324 324 323 322 324 327 329 334 337 336 337 335 333 334 334 341 341 342 339 341 347
316 316 316 316 315 315 316 317 317 318 318 320 319 318 318 317 318 319 317 318 319 319 318 318 319 318 323 324 324 322 322 326 330 333 333 336 335 336 336 335 337 337 339 340 338 337 338
315 315 315 316 316 315 314 314 315 316 317 319 319 319 318 318 318 318 317 318 326 324 325 327 326 322 323 323 324 323 325 328 331 331 332 333 334 336 337 338 337 337 336 337 337 334 333
318 315 312 313 314 316 315 313 313 314 316 319 319 320 319 318 318 317 318 319 323 324 325 326 327 324 324 323 325 325 328 330 332 332 332 333 336 338 338 338 335 334 335 337 336 335 333
315 318 317 312 312 315 315 313 312 313 315 319 319 321 320 317 318 321 321 319 320 324 325 330 327 324 323 323 324 326 328 332 331 331 332 333 334 339 338 338 334 331 336 337 338 333 334
314 315 317 315 312 313 314 312 311 312 316 319 321 322 321 317 329 325 327 325 324 324 334 331 325 323 323 324 327 325 329 331 329 329 330 331 334 336 337 336 334 333 336 336 334 332 331
314 314 316 317 312 312 313 311 311 313 318 320 323 323 322 317 322 325 326 326 326 328 332 326 323 323 325 326 326 327 329 329 329 327 327 330 331 331 332 333 333 335 333 332 331 329 328
314 313 315 317 313 311 311 311 311 314 319 321 324 323 323 318 321 325 324 326 327 329 332 325 325 325 325 325 326 325 327 325 325 326 327 327 327 329 329 329 330 332 331 329 331 329 330
318 315 314 316 316 310 310 311 312 317 319 323 323 321 323 321 325 325 326 327 331 329 329 327 327 325 325 325 326 324 324 324 325 324 325 325 325 329 328 327 331 331 328 327 333 339 334
322 319 316 314 316 312 310 311 312 318 320 323 323 318 321 323 324 325 327 330 332 331 331 329 327 324 326 325 326 324 324 324 326 326 326 327 329 330 330 331 333 331 329 327 328 329 335
323 323 319 314 315 315 309 311 312 319 320 324 324 327 326 322 321 325 329 329 329 328 329 330 325 325 326 326 326 325 324 327 327 327 325 326 334 332 330 331 330 330 329 327 326 332 339
323 323 322 316 313 315 310 310 312 319 320 324 326 328 330 327 323 325 328 329 329 329 329 331 325 326 326 327 327 328 328 328 329 329 326 330 329 335 335 335 336 334 329 328 327 329 343
322 323 323 322 314 314 313 309 312 318 321 325 326 332 327 325 326 326 325 326 326 326 328 331 333 333 327 327 328 329 331 331 332 331 329 329 335 339 339 336 335 334 336 333 332 333 335
322 322 323 323 320 313 314 310 311 315 320 323 328 333 328 326 327 326 325 324 325 326 327 331 333 333 330 330 331 332 335 334 334 335 335 333 337 340 340 335 336 337 337 335 333 330 337
321 322 322 323 322 316 313 313 310 312 319 323 328 337 327 326 326 326 328 330 326 329 332 331 333 331 332 334 335 337 336 334 334 333 332 334 335 339 340 338 337 337 336 336 332 331 334
322 322 322 322 322 320 313 314 311 312 320 326 329 337 336 330 326 326 327 330 333 332 331 331 335 332 338 338 338 337 336 335 333 332 334 333 337 337 337 337 337 336 337 337 337 334 334
322 322 322 322 321 322 316 313 314 312 325 332 334 335 332 334 335 327 327 331 334 334 333 336 337 336 335 337 337 337 337 336 337 335 335 331 337 339 337 338 337 335 337 336 336 336 330
323 322 322 322 321 322 318 313 314 311 318 331 332 331 331 334 336 332 330 334 334 337 336 336 336 336 336 336 335 334 334 334 334 334 331 333 335 338 340 339 338 338 337 337 337 334 329
322 322 322 322 322 322 320 315 313 312 310 316 326 330 331 337 338 339 335 330 332 337 337 334 333 336 336 334 333 333 332 333 332 333 332 333 334 335 336 338 342 334 335 336 335 331 330
322 322 322 322 322 321 321 318 313 313 311 311 326 328 329 335 335 336 334 333 334 332 332 333 333 333 335 334 335 334 334 333 333 333 330 329 332 334 332 333 333 333 332 333 332 334 333
322 322 323 323 322 321 321 320 315 313 314 311 327 326 325 332 339 334 334 333 333 331 334 333 333 333 332 332 335 336 335 338 335 335 331 331 331 330 332 333 333 331 332 331 330 335 333
323 322 322 323 322 321 320 321 317 312 314 311 323 324 323 326 329 329 332 332 334 335 337 334 334 333 333 333 334 334 335 333 336 338 336 335 332 333 334 336 335 336 332 332 335 339 338
323 323 323 323 322 321 320 320 319 313 312 314 323 322 320 322 321 322 328 328 328 333 335 334 335 336 334 334 333 334 335 332 334 336 335 333 334 332 334 338 342 336 337 340 338 337 336
323 323 323 322 322 321 320 320 319 315 310 313 315 316 319 322 322 320 320 327 325 328 330 330 334 336 336 338 338 337 336 335 336 336 333 334 333 334 333 343 337 335 334 336 335 334 333

GFSGBSN_850_thetae_240.txt.gz
Theta_e
317 317 317 318 318 318 318 318 318 318 317 317 317 317 318 318 318 318 318 318 318 318 319 319 320 321 322 322 326 331 330 330 336 340 340 337 335 335 339 339 340 342 343 345 344 344 349
318 318 318 318 319 319 319 319 319 319 318 318 317 317 317 318 319 318 318 318 318 318 318 318 318 318 319 322 329 330 330 330 332 333 335 334 335 335 338 338 338 340 343 347 345 345 351
318 318 319 319 319 319 319 319 319 319 319 319 318 317 317 318 318 319 318 318 318 318 318 318 318 317 317 322 328 329 328 327 328 331 333 335 335 335 335 333 337 337 347 346 347 346 347
316 317 317 318 318 319 319 319 319 319 319 319 319 318 318 318 318 319 319 318 318 318 318 318 317 316 317 321 320 326 326 328 330 333 333 336 336 335 336 336 335 336 340 347 346 344 342
315 315 316 316 317 317 318 318 318 318 319 319 319 318 318 318 318 319 319 318 318 318 318 318 317 317 319 320 321 328 327 326 329 334 334 334 334 335 337 332 331 335 337 341 347 344 343
316 316 316 316 316 316 316 316 317 317 318 318 319 319 318 318 318 319 319 318 318 318 318 317 316 320 322 322 321 327 328 327 326 329 331 333 335 331 330 329 334 337 338 339 342 345 345
317 314 314 314 315 316 316 315 314 315 316 317 319 319 318 318 318 319 319 317 319 321 320 317 318 318 319 321 323 322 322 326 327 325 327 331 331 332 332 332 332 335 338 340 338 344 348
316 318 317 313 313 314 316 316 314 313 315 316 319 319 319 318 318 319 318 318 324 323 321 325 325 323 326 322 321 323 323 322 324 326 329 328 330 330 334 335 337 337 336 337 337 340 339
314 315 318 317 313 313 315 315 314 312 313 316 319 319 320 319 318 318 318 319 319 319 322 324 325 326 326 324 323 323 322 322 328 329 330 329 330 333 335 336 336 331 333 334 335 334 332
314 314 315 317 315 312 313 314 312 311 313 316 319 320 321 319 317 319 324 321 320 319 319 322 325 326 325 323 322 325 324 326 328 330 329 329 330 333 339 339 336 333 333 336 337 331 331
315 314 315 317 317 312 312 312 311 311 313 318 319 322 322 319 327 323 327 325 324 323 328 330 324 326 323 322 324 325 325 326 328 329 328 330 331 333 337 337 334 335 332 334 333 329 328
320 317 314 315 317 313 310 310 311 312 314 319 320 323 323 321 320 324 325 326 325 322 328 327 325 320 320 320 322 325 325 327 328 328 325 325 328 329 331 333 332 332 332 326 324 323 326
323 321 318 314 316 315 310 310 311 312 316 319 322 323 323 322 319 324 324 326 321 325 326 323 319 318 319 321 321 324 324 325 324 324 323 323 325 324 328 327 324 330 324 326 329 327 328
323 323 320 315 313 316 311 310 311 312 318 320 323 322 321 323 323 325 324 321 328 327 324 322 320 319 321 322 322 322 323 323 321 321 320 324 323 325 326 324 325 327 325 326 330 331 330
322 323 323 320 313 314 314 309 311 313 319 320 324 324 319 322 321 325 326 324 325 327 327 325 322 322 321 322 321 322 321 321 321 319 321 322 323 324 327 326 324 325 328 324 325 324 334
322 322 323 323 319 313 314 311 310 314 319 322 325 324 322 323 323 325 323 324 324 326 327 325 327 320 321 322 322 319 318 320 323 322 321 322 325 328 330 328 331 327 325 326 321 329 337
321 322 322 323 322 316 313 314 310 313 319 325 325 326 329 321 324 324 323 323 324 326 325 325 325 324 319 322 322 318 320 323 323 324 320 320 323 327 333 334 334 332 331 327 321 325 338
320 321 321 322 322 321 313 314 310 312 319 324 325 325 330 325 322 321 318 322 323 324 323 323 323 323 320 321 321 321 322 323 326 325 324 324 328 331 335 335 333 331 333 326 328 331 334
320 321 321 321 322 322 316 313 312 311 317 323 325 330 328 325 321 320 320 322 322 322 322 323 325 324 328 322 323 324 329 331 331 329 331 331 331 332 334 331 332 335 334 331 327 324 332
321 321 321 321 322 321 319 313 314 311 317 324 327 331 326 324 325 322 322 322 324 328 325 326 326 329 331 333 330 330 331 332 333 332 332 334 329 330 333 333 332 335 334 333 330 328 329
322 322 321 322 322 321 321 316 314 311 325 327 328 330 332 331 322 320 321 322 325 328 330 331 333 334 335 333 333 335 332 331 332 332 330 329 331 332 331 335 336 334 335 335 335 332 333
322 323 322 322 322 321 321 318 315 313 322 333 332 330 330 330 331 330 323 322 325 332 335 335 334 334 332 333 334 334 333 332 334 331 328 326 333 333 334 335 334 336 335 334 335 330 337
322 322 322 322 322 321 321 319 314 315 311 323 327 329 330 329 330 333 327 323 330 335 335 334 334 333 332 334 333 332 332 332 332 331 329 329 333 331 335 337 336 334 333 335 334 333 334
322 322 322 322 322 322 321 320 316 313 313 312 325 326 330 331 332 335 333 332 333 334 334 333 334 333 334 333 333 331 332 332 330 329 328 327 329 329 335 334 339 332 330 333 332 336 337
322 322 322 322 322 322 321 321 318 313 313 315 326 326 326 327 332 334 332 330 332 331 333 334 332 333 334 334 332 332 329 330 332 331 328 324 325 325 334 333 328 329 329 334 331 333 339
322 322 322 322 322 322 321 320 320 316 313 313 325 324 324 326 329 330 329 331 331 331 331 332 332 332 332 326 329 331 334 332 333 334 329 323 321 324 324 328 329 328 332 329 328 333 335
321 322 323 323 323 322 321 320 320 318 314 313 322 321 321 323 324 327 326 327 331 333 333 331 333 333 332 329 332 331 332 332 335 334 333 330 325 328 329 330 331 333 334 332 331 333 336
322 323 323 323 322 321 321 320 319 319 315 312 321 320 317 320 320 318 324 324 326 332 334 332 333 333 331 330 328 329 331 329 330 334 334 330 328 326 327 331 336 334 333 335 334 335 336
323 323 323 323 322 322 322 321 319 318 316 311 313 312 315 317 319 319 317 319 320 328 331 331 332 333 334 331 329 328 331 329 328 331 327 330 326 329 329 333 333 333 335 335 334 334 331

GFSGBSN_850_thetae_246.txt.gz
Theta_e
316 317 317 318 318 318 318 318 318 318 318 318 318 317 317 317 317 317 318 317 317 318 319 320 320 320 320 320 323 327 328 329 333 329 332 331 332 332 331 334 338 341 344 345 350 352 352
315 316 316 316 317 317 318 318 318 318 318 318 318 318 318 317 317 318 318 318 317 317 318 318 319 319 319 318 324 328 329 330 328 329 332 330 331 331 332 332 336 340 344 344 348 350 350
315 315 316 316 316 316 317 317 317 318 318 318 318 318 318 318 318 318 318 318 318 318 317 317 318 318 318 321 322 324 329 330 327 326 330 330 331 332 332 331 334 344 344 345 350 351 352
317 315 315 315 315 316 316 317 317 317 317 317 318 318 319 318 318 318 318 319 318 318 317 317 318 318 318 320 320 322 327 329 327 326 329 331 331 333 334 334 339 343 343 347 346 350 351
315 317 317 315 314 314 316 316 316 316 316 316 317 318 319 318 318 318 318 318 318 318 317 317 317 317 317 319 320 321 327 328 327 326 329 332 333 333 333 329 336 336 346 345 348 347 351
314 314 316 317 316 313 314 315 316 316 315 315 316 317 318 319 318 318 318 318 318 317 317 317 317 317 318 321 320 321 325 327 326 327 332 332 332 327 326 328 336 342 346 343 347 346 345
313 313 315 317 317 315 312 314 315 316 315 314 315 317 318 319 319 318 317 318 317 318 316 318 317 316 318 320 321 322 322 325 325 326 324 326 328 331 331 329 330 332 335 342 342 344 344
318 316 314 315 317 317 312 312 314 314 313 313 314 317 318 319 319 318 318 317 320 318 317 320 321 321 321 323 323 322 322 322 322 324 326 325 329 329 329 329 332 332 334 335 335 342 343
321 319 316 313 315 316 313 311 312 312 312 312 314 317 318 321 320 318 318 318 322 319 316 319 321 322 323 324 323 323 322 322 321 322 326 327 330 329 330 332 335 333 333 333 334 342 340
322 322 320 315 313 315 315 310 310 311 311 312 314 318 320 321 319 317 320 323 322 319 315 317 321 321 323 323 322 323 322 322 323 323 324 327 328 330 330 331 333 336 333 333 342 341 343
322 322 322 322 317 312 314 313 309 310 311 312 315 318 320 322 320 322 324 324 321 321 317 322 322 324 323 323 321 321 322 322 324 327 326 329 329 327 327 327 332 335 332 331 338 328 338
321 322 322 322 322 317 313 314 311 310 311 313 316 318 321 322 320 323 323 324 322 316 324 325 322 321 319 319 320 321 322 322 324 325 323 327 325 325 325 326 331 332 327 323 319 320 326
320 321 321 321 322 321 316 313 314 310 311 315 318 320 322 322 319 320 324 323 315 317 321 324 321 317 317 317 319 320 321 322 322 325 327 324 325 323 324 327 325 325 325 327 329 325 326
318 320 321 321 320 321 320 314 314 312 311 316 320 323 324 322 321 323 324 319 323 320 322 321 317 316 317 318 319 320 320 320 321 319 318 321 326 323 323 325 325 325 325 326 331 327 326
320 319 320 320 320 320 321 318 314 314 312 317 324 325 324 321 321 323 324 319 318 320 323 321 319 317 318 319 320 321 320 319 320 319 324 320 322 322 322 323 323 324 325 322 320 319 324
322 320 319 320 320 320 320 320 315 314 312 319 325 325 324 320 321 323 319 319 321 321 321 319 322 319 320 319 320 319 319 319 321 318 320 320 323 321 327 328 328 322 319 323 319 326 327
322 322 320 320 320 321 320 321 316 315 313 321 324 326 326 320 321 324 319 319 322 324 322 320 320 316 320 323 318 316 320 320 320 319 319 317 319 321 327 330 329 328 328 318 318 319 325
321 322 322 321 321 321 321 321 317 315 316 323 324 324 322 321 319 313 318 319 321 320 320 319 318 316 318 318 321 317 318 321 322 317 319 318 315 320 322 327 328 329 329 321 324 327 327
321 321 322 322 322 321 321 321 317 314 326 324 325 324 321 321 315 315 316 320 320 320 320 321 319 318 319 322 322 318 318 319 321 319 319 321 319 320 325 328 329 332 330 323 319 322 329
320 321 321 322 322 321 322 321 318 314 323 325 328 324 322 320 319 318 320 321 322 324 321 321 320 322 322 322 317 323 320 328 321 321 324 326 321 320 323 329 327 332 331 327 325 327 327
320 321 322 321 321 321 322 320 320 313 317 331 332 329 325 321 321 318 320 321 323 324 323 328 331 330 332 329 329 326 328 329 328 331 326 325 328 328 329 330 331 331 332 330 330 327 331
320 320 321 321 321 321 322 321 321 314 313 329 330 329 329 327 327 328 323 327 325 326 323 332 334 332 330 328 329 330 329 328 329 326 328 323 327 329 334 332 332 333 331 331 331 328 330
320 321 321 321 321 322 322 321 320 317 313 317 323 325 328 326 326 329 326 325 329 323 331 333 332 331 330 331 330 327 328 326 328 326 325 326 326 326 333 331 330 330 330 330 331 328 334
321 320 321 321 321 322 322 321 320 319 312 316 322 324 326 326 328 330 330 330 330 329 332 332 332 331 331 332 332 330 329 326 326 322 323 325 325 325 331 328 332 327 324 328 332 332 333
321 321 321 321 321 322 322 321 320 319 315 313 323 322 324 321 325 329 329 327 328 329 332 331 332 332 332 329 328 329 329 329 328 322 323 321 322 325 330 328 327 327 330 333 333 336 333
321 322 321 320 321 322 322 321 320 319 318 311 323 320 320 321 322 327 328 325 328 329 326 331 331 331 331 326 330 330 332 329 332 329 319 320 318 325 326 334 331 326 328 328 329 333 333
321 321 321 321 322 323 322 321 321 320 318 312 317 318 318 320 320 324 324 320 325 330 328 329 332 331 330 327 329 329 330 329 332 331 330 325 324 325 325 326 326 322 329 329 330 329 336
321 321 321 321 322 322 322 321 321 321 318 315 310 313 314 316 319 320 320 319 322 329 330 330 330 330 328 330 330 329 327 326 329 329 330 327 327 325 324 328 330 328 332 329 326 332 339
319 319 320 320 322 321 322 322 322 321 320 316 311 309 308 309 314 318 319 318 318 321 320 326 329 329 330 328 324 324 326 323 325 332 325 329 324 325 324 325 324 331 329 332 332 335 340